Fort Myers, FL

8:41 PM EDT on April 24, 2018 (GMT -0400)
Page

Weather History for KFMY - October, 2013

Change the Weather History Date:

Friday, October 25, 2013

  Actual Average Record
Temperature  
Mean Temperature 72 °F 76 °F  
Max Temperature 81 °F 85 °F 91 °F (1996)
Min Temperature 62 °F 67 °F 50 °F (2006)
Degree Days  
Heating Degree Days 0 0  
Month to date heating degree days 0 0  
Since 1 July heating degree days 0 0  
Cooling Degree Days 7 11  
Month to date cooling degree days 358 339  
Year to date cooling degree days 3563 3585  
Growing Degree Days 22 (Base 50)    
Moisture  
Dew Point 59 °F    
Average Humidity 68    
Maximum Humidity 84    
Minimum Humidity 48    
Precipitation  
Precipitation 0.00 in 0.08 in 3.30 in (1921)
Month to date precipitation 1.34 2.46  
Year to date precipitation 51.86 51.84  
Sea Level Pressure  
Sea Level Pressure 30.16 in    
Wind  
Wind Speed 8 mph (NE)    
Max Wind Speed 18 mph    
Max Gust Speed 23 mph    
Visibility 10 miles    
Events      
T = Trace of Precipitation, MM = Missing Value Source: NWS Daily Summary

Daily Weather History Graph

Daily Weather History Graph

Search for Another Location

Airport or City:

Astronomy

Oct. 25, 2013 Rise Set
Actual Time 7:32 AM EDT 6:49 PM EDT
Civil Twilight 7:08 AM EDT 7:13 PM EDT
Nautical Twilight 6:41 AM EDT 7:40 PM EDT
Astronomical Twilight 6:14 AM EDT 8:07 PM EDT
Moon No Moon Rise 1:03 PM EDT
Length of Visible Light 12h 04m
Length of Day
11h 17m
Waning Gibbous, 62% of the Moon is Illuminated
Oct 25
Waning Gibbous
Oct 26
Last Quarter
Nov 3
New
Nov 10
First Quarter
Nov 17
Full

Hourly Weather History & Observations

Time (EDT) Temp. Heat Index Dew Point Humidity Pressure Visibility Wind Dir Wind Speed Gust Speed Precip Events Conditions
12:53 AM 64.9 °F - 57.9 °F 78% 30.13 in 10.0 mi NNE 9.2 mph - N/A   Clear
1:53 AM 64.9 °F - 57.9 °F 78% 30.13 in 10.0 mi NE 6.9 mph - N/A   Clear
2:53 AM 64.0 °F - 57.9 °F 80% 30.13 in 10.0 mi NE 6.9 mph - N/A   Clear
3:53 AM 64.0 °F - 57.9 °F 80% 30.13 in 10.0 mi NNE 6.9 mph - N/A   Clear
4:53 AM 63.0 °F - 57.9 °F 84% 30.13 in 10.0 mi NNE 8.1 mph - N/A   Clear
5:53 AM 63.0 °F - 57.9 °F 84% 30.14 in 10.0 mi NE 6.9 mph - N/A   Clear
6:53 AM 63.0 °F - 57.9 °F 84% 30.17 in 10.0 mi NE 3.5 mph - N/A   Clear
7:53 AM 63.0 °F - 57.9 °F 84% 30.19 in 10.0 mi NNE 6.9 mph - N/A   Clear
8:53 AM 64.0 °F - 59.0 °F 84% 30.19 in 10.0 mi NNE 9.2 mph - N/A   Clear
9:53 AM 69.1 °F - 59.0 °F 70% 30.21 in 10.0 mi NNE 9.2 mph - N/A   Clear
10:53 AM 75.0 °F - 61.0 °F 62% 30.21 in 10.0 mi NNE 9.2 mph - N/A   Clear
11:53 AM 77.0 °F - 60.1 °F 56% 30.19 in 10.0 mi NNE 15.0 mph - N/A   Clear
12:53 PM 80.1 °F 81.1 °F 61.0 °F 52% 30.18 in 10.0 mi NNE 15.0 mph - N/A   Clear
1:53 PM 80.1 °F 80.9 °F 60.1 °F 50% 30.15 in 10.0 mi NE 10.4 mph 19.6 mph N/A   Clear
2:53 PM 80.1 °F 80.7 °F 59.0 °F 48% 30.14 in 10.0 mi NNE 12.7 mph - N/A   Clear
3:53 PM 79.0 °F - 59.0 °F 50% 30.13 in 10.0 mi NE 13.8 mph - N/A   Clear
4:53 PM 78.1 °F - 57.0 °F 48% 30.13 in 10.0 mi NE 10.4 mph - N/A   Clear
5:53 PM 77.0 °F - 57.0 °F 50% 30.14 in 10.0 mi ENE 5.8 mph - N/A   Clear
6:53 PM 73.9 °F - 57.9 °F 57% 30.14 in 10.0 mi NE 4.6 mph - N/A   Clear
7:53 PM 71.1 °F - 59.0 °F 66% 30.15 in 10.0 mi NNE 4.6 mph - N/A   Clear
8:53 PM 70.0 °F - 59.0 °F 68% 30.17 in 10.0 mi ENE 3.5 mph - N/A   Clear
9:53 PM 68.0 °F - 60.1 °F 76% 30.18 in 10.0 mi NE 5.8 mph - N/A   Clear
10:53 PM 69.1 °F - 60.1 °F 73% 30.19 in 10.0 mi ENE 5.8 mph - N/A   Clear
11:53 PM 66.9 °F - 60.1 °F 79% 30.19 in 10.0 mi ENE 5.8 mph - N/A   Clear